This demonstration page uses our WeatherBlox Daily Observations layout. Learn more.

Left ArrowRight Arrow

Hourly Observations for November 30, 2016

Temp ( °F °C ) Dew Point ( °F °C ) Humidity (%) Winds ( mph kmh ) Pressure ( in mb ) Visibility ( mi km ) Precip ( " mm )
12:59 am 00:59 Clear 66 18.9 63 17.2 90 90 S 7 11 29.96 1015 7 11 0.00 0.00
1:59 am 01:59 Partly Cloudy 66 18.9 63 17.2 90 90 S 9 15 29.95 1014 7 11 0.00 0.00
2:48 am 02:48 Mostly Cloudy 66 18.9 63 17.2 90 90 S 9 15 29.97 1015 7 11 0.00 0.00
2:59 am 02:59 Mostly Cloudy 66 18.9 63 17.2 90 90 S 8 13 29.96 1014 7 11 0.00 0.00
3:52 am 03:52 Cloudy 67 19.4 64 17.8 91 91 S 8 13 29.94 1014 7 11 0.00 0.00
3:59 am 03:59 Cloudy 67 19.4 64 17.8 91 91 S 7 11 29.93 1014 7 11 0.00 0.00
4:39 am 04:39 Cloudy 67 19.4 64 17.8 91 91 SSW 7 11 29.94 1014 7 11 0.00 0.00
4:59 am 04:59 Cloudy 67 19.4 64 17.8 91 91 SSW 8 13 29.93 1014 7 11 0.00 0.00
5:59 am 05:59 Mostly Cloudy 67 19.4 65 18.3 93 93 SSW 7 11 29.93 1014 7 11 0.00 0.00
6:14 am 06:14 Cloudy with Mist and Fog 67 19.4 65 18.3 93 93 SSW 6 9 29.94 1014 6 10 0.00 0.00
6:56 am 06:56 Partly Cloudy with Mist and Fog 66 19 64 18 94 94 SSW 6 9 29.94 1014 5 8 0.00 0.00
6:59 am 06:59 Mostly Cloudy 67 19.4 65 18.3 93 93 S 7 11 29.93 1014 7 11 0.00 0.00
7:12 am 07:12 Mostly Cloudy with Mist and Fog 67 19.4 65 18.3 93 93 S 6 9 29.94 1014 6 10 0.00 0.00
7:53 am 07:53 Cloudy with Mist and Fog 68 20 64 18 88 88 SSW 9 15 29.91 1013 5 8 0.00 0.00
7:59 am 07:59 Cloudy with Mist and Fog 68 20 65 18.3 90 90 SSW 12 19 29.92 1013 5 8 0.00 0.00
8:21 am 08:21 Cloudy with Mist and Fog 69 20.6 66 18.9 90 90 S 10 17 29.91 1013 6 10 0.00 0.00
8:59 am 08:59 Mostly Cloudy 70 21.1 66 18.9 87 87 SSW 9 15 29.91 1013 7 11 0.00 0.00
9:27 am 09:27 Mostly Cloudy 71 21.7 66 18.9 84 84 SSW 13 20 29.91 1013 7 11 0.00 0.00
9:59 am 09:59 Mostly Cloudy 73 22.8 66 18.9 79 79 SSW 14 22 29.91 1013 8 13 0.00 0.00
10:59 am 10:59 Mostly Cloudy 73 22.8 66 18.9 79 79 SSW 9 15 29.88 1012 8 13 0.00 0.00
11:59 am 11:59 Mostly Cloudy 75 23.9 65 18.3 71 71 S 14 22 29.84 1011 9 14 0.00 0.00
12:59 pm 12:59 Mostly Cloudy 76 24.4 65 18.3 69 69 SSW 10 17 29.81 1010 10 16 0.00 0.00
1:59 pm 13:59 Mostly Cloudy 75 23.9 65 18.3 71 71 S 9 15 29.80 1009 10 16 0.00 0.00
2:59 pm 14:59 Cloudy 75 23.9 65 18.3 71 71 SSW 9 15 29.80 1009 10 16 0.00 0.00
3:59 pm 15:59 Cloudy 74 23.3 64 17.8 71 71 SSW 9 15 29.80 1009 10 16 0.00 0.00
4:59 pm 16:59 Cloudy 72 22.2 65 18.3 79 79 S 12 19 29.79 1009 10 16 0.00 0.00
5:59 pm 17:59 Cloudy 70 21.1 65 18.3 84 84 S 9 15 29.77 1008 10 16 0.00 0.00
7:59 pm 19:59 Mostly Cloudy 69 20.6 64 17.8 84 84 S 10 17 29.75 1007 10 16 0.00 0.00
9:59 pm 21:59 Mostly Cloudy 70 21.1 64 17.8 82 82 SSW 14 22 29.71 1006 10 16 0.00 0.00
10:59 pm 22:59 Mostly Cloudy 69 20.6 64 17.8 84 84 SSW 13 20 29.70 1006 10 16 0.00 0.00
11:59 pm 23:59 Mostly Cloudy 69 20.6 65 18.3 87 87 SSW 15 24 29.65 1004 10 16 0.01 0.25

Powered by AerisWeather